[[{"header":{"parameterUnit":"m.s-1","parameterCategory":1,"la1":30.2991,"la2":30.254,"lo1":-89.0895,"lo2":-89.0444,"dy":0.0017,"dx":0.0017,"nx":28,"ny":28,"refTime":"2025-08-22T09:00:00:Z","depth":0,"parameterNumber":2,"parameterNumberName":"U-component_of_WINDS"},"data":[0,0,0,0,0,0,0,0,0,0,0,0,0,0,0,0,0,0,0,0,0,0,0,0,0,0,0,0,0,0,0,0,0,0,0,0,0,0,0,0,0,0,0,0,0,0,0,0,0,0,0,0,0,0,0,0,0,0,2.645,2.645,0,2.6482,2.6482,2.6482,2.6417,2.6415,2.6413,2.6411,2.6445,2.6448,2.645,0,0,0,0,0,0,0,0,0,0,0,0,0,2.6332,2.6335,2.645,2.645,2.6451,2.6482,2.6482,2.6482,2.6418,2.6415,2.6412,2.641,2.6444,2.6447,2.6451,0,0,0,0,0,0,0,0,0,0,0,0,0,2.6376,2.6335,2.645,2.6422,2.642,2.6481,2.6482,2.6483,2.6418,2.6415,2.6412,2.6409,2.6443,2.6447,2.6451,2.6542,0,0,2.6464,2.6466,0,0,0,0,0,0,0,0,2.6373,2.638,2.6426,2.6424,2.6422,2.6442,2.6453,2.6502,2.6419,2.6419,2.6411,2.6407,2.6447,2.645,2.6463,2.6543,2.6545,2.6465,2.6467,2.6469,2.6471,0,0,0,0,0,0,0,2.637,2.6378,2.6462,2.6426,2.6424,2.6408,2.641,2.6462,2.645,2.6419,2.6414,2.6419,2.6445,2.6459,2.6464,2.6545,2.6465,2.6469,2.6471,2.6473,2.6697,2.67,0,0,0,0,0,0,2.6371,2.6376,2.6461,2.6463,2.6389,2.6412,2.6415,2.6439,2.645,2.6448,2.6421,2.6415,2.6454,2.6459,2.6465,2.6569,2.6469,2.6473,2.6476,2.6694,2.6698,2.6702,0,0,0,0,0,0,2.6368,2.6379,2.646,2.6418,2.6427,2.6418,2.6445,2.6441,2.6456,2.6451,2.6449,2.6438,2.6451,2.6459,2.6522,2.6569,2.6475,2.6479,2.669,2.6695,2.67,2.678,0,0,0,0,0,0,2.6365,2.6379,2.6413,2.642,2.643,2.6518,2.6448,2.6444,2.6463,2.6456,2.6467,2.6466,2.6449,2.6516,2.6526,2.6573,2.6483,2.6686,2.6692,2.6698,2.6773,2.6787,2.6799,0,0,0,0,0,2.6361,2.6436,2.6415,2.6426,2.6473,2.6521,2.6526,2.6506,2.6467,2.6501,2.6498,2.6465,2.6563,2.6523,2.6534,2.6583,2.6683,2.669,2.6698,2.6767,2.6784,2.6798,0,0,0,0,0,0,2.6437,2.6436,2.6414,2.6492,2.6507,2.6509,2.6552,2.6525,2.6552,2.6544,2.6517,2.652,2.6588,2.6592,2.6548,2.667,2.6616,2.6626,2.6665,2.6681,2.6694,2.6691,2.6486,0,0,0,0,0,2.6462,2.65,2.6498,2.6568,2.6576,2.6563,2.6583,2.6565,2.658,2.6586,2.6587,2.6602,2.6636,2.6659,2.669,2.6773,2.6773,2.6812,2.6825,2.6836,2.6844,2.6886,2.6902,2.6727,2.6726,2.6726,0,0,2.6516,2.652,2.6546,2.6583,2.6592,2.6631,2.6569,2.6614,2.6643,2.6593,2.6652,2.6654,2.6668,2.6741,2.6774,2.6747,2.6893,2.6845,2.6854,2.6857,2.6895,2.6912,2.6927,2.6732,2.6731,2.673,0,0,2.6633,2.6641,2.6698,2.6708,2.6722,2.6712,2.6726,2.6732,2.6731,2.679,2.6752,2.6786,2.6845,2.6856,2.687,2.6988,2.6957,2.6999,2.7066,2.7107,2.7121,2.7133,2.7173,2.7188,2.7008,2.7008,2.7008,0,2.6698,2.6756,2.6731,2.6778,2.6794,2.6749,2.6806,2.6817,2.6841,2.6852,2.6822,2.6893,2.69,2.6973,2.7002,2.7015,2.7029,2.6997,2.7121,2.7133,2.7144,2.7181,2.7197,2.7013,2.7012,2.7012,2.7011,0,2.6833,2.6874,2.6919,2.694,2.6962,2.7014,2.6996,2.702,2.7001,2.6994,2.7053,2.706,2.709,2.7106,2.7088,2.7176,2.7159,2.7125,2.707,2.7165,2.72,2.7215,2.7019,2.7018,2.7016,2.7015,0,0,2.7001,2.7006,2.7023,2.703,2.7041,2.7072,2.7121,2.7149,2.7169,2.7187,2.7226,2.7275,2.7243,2.7258,2.7241,2.7277,2.7366,2.7238,2.7238,2.726,2.7461,2.7485,2.7503,2.7347,2.7349,2.7351,2.7459,0,2.7115,2.7198,2.7176,2.7258,2.7294,2.725,2.7292,2.7303,2.7297,2.7326,2.732,2.7355,2.7311,2.732,2.7353,2.7349,2.7406,2.7341,2.7382,2.7383,2.7378,2.7521,2.7548,2.7649,2.7473,2.7475,2.7477,0,2.726,2.728,2.7366,2.7367,2.7381,2.742,2.7442,2.7471,2.7481,2.7474,2.749,2.7464,2.7511,2.7456,2.752,2.7475,2.7491,2.7491,2.7494,2.7496,2.7435,2.7525,2.7681,2.7696,2.7499,2.7497,2.7495,0,2.737,2.742,2.7476,2.7485,2.7488,2.7516,2.7519,2.7526,2.7543,2.7562,2.7573,2.7599,2.7612,2.7632,2.7613,2.7576,2.7679,2.7623,2.7673,2.7674,2.7696,2.7695,2.7855,2.7709,2.7709,2.7709,2.7708,0,2.75,2.7553,2.7525,2.756,2.7618,2.7591,2.7649,2.7647,2.7653,2.7686,2.7651,2.7682,2.7656,2.7685,2.7671,2.7724,2.7731,2.7726,2.7722,2.7729,2.7729,2.7738,2.7729,2.7713,2.7712,2.7711,2.771,0,2.7633,2.7617,2.7675,2.7672,2.7673,2.7715,2.7713,2.7744,2.7735,2.7777,2.7786,2.7772,2.7804,2.7787,2.7821,2.7811,2.7879,2.7866,2.7875,2.7871,2.7921,2.7916,2.8091,2.8112,2.7954,2.7956,2.7957,0,2.7716,2.7756,2.7756,2.7775,2.7779,2.7811,2.7827,2.7802,2.782,2.7833,2.7863,2.7891,2.7913,2.7966,2.7959,2.7984,2.797,2.8029,2.7973,2.7978,2.7968,2.7965,2.7968,2.804,2.8042,2.8044,2.8045,0,2.7864,2.7853,2.7878,2.7899,2.7919,2.7935,2.7948,2.7965,2.794,2.7962,2.7993,2.801,2.8043,2.8071,2.8092,2.8095,2.8065,2.8063,2.8075,2.8082,2.8085,2.8081,2.7904,2.8059,2.8057,2.8056,2.8055,2.8055,2.7973,2.8005,2.8009,2.8037,2.8043,2.8055,2.8084,2.8077,2.8102,2.8126,2.811,2.8146,2.8153,2.8177,2.8184,2.8211,2.8187,2.8206,2.8211,2.8215,2.8221,2.8081,2.8215,2.8215,2.8215,2.8214,2.8214,0,2.8118,2.8117,2.8143,2.816,2.8182,2.8151,2.8163,2.8182,2.8214,2.8223,2.8243,2.8278,2.8305,2.8299,2.8322,2.8345,2.8332,2.8352,2.8349,2.835,2.8242,2.8228,2.8362,2.8362,2.8362,2.8362,2.8362,2.8362,2.8195,2.8246,2.8235,2.8288,2.8287,2.8321,2.833,2.8341,2.8346,2.8386,2.8407,2.8402,2.8404,2.8427,2.845,2.8447,2.8456,2.8481,2.8474,2.8373,2.8358,2.8344,2.833,2.8484,2.8484,2.8579,2.858,2.858]},{"header":{"parameterUnit":"m.s-1","parameterCategory":1,"la1":30.2991,"la2":30.254,"lo1":-89.0895,"lo2":-89.0444,"dy":0.0017,"dx":0.0017,"nx":28,"ny":28,"refTime":"2025-08-22T09:00:00:Z","depth":0,"parameterNumber":3,"parameterNumberName":"V-component_of_WINDS"},"data":[0,0,0,0,0,0,0,0,0,0,0,0,0,0,0,0,0,0,0,0,0,0,0,0,0,0,0,0,0,0,0,0,0,0,0,0,0,0,0,0,0,0,0,0,0,0,0,0,0,0,0,0,0,0,0,0,0,0,-0.6954,-0.6954,0,-0.6997,-0.6998,-0.6998,-0.7005,-0.7004,-0.7004,-0.7003,-0.7049,-0.705,-0.7052,0,0,0,0,0,0,0,0,0,0,0,0,0,-0.6879,-0.688,-0.6954,-0.6955,-0.6955,-0.6997,-0.6998,-0.6998,-0.7005,-0.7004,-0.7004,-0.7003,-0.7048,-0.705,-0.7052,0,0,0,0,0,0,0,0,0,0,0,0,0,-0.6916,-0.6881,-0.6954,-0.6963,-0.6964,-0.6997,-0.6998,-0.6999,-0.7005,-0.7004,-0.7004,-0.7003,-0.7048,-0.705,-0.7052,-0.7079,0,0,-0.706,-0.7061,0,0,0,0,0,0,0,0,-0.6914,-0.6919,-0.6961,-0.6963,-0.6964,-0.6995,-0.6988,-0.7026,-0.7005,-0.699,-0.7003,-0.7003,-0.7031,-0.7035,-0.7045,-0.7081,-0.7083,-0.706,-0.7061,-0.7062,-0.7063,0,0,0,0,0,0,0,-0.6911,-0.6917,-0.6971,-0.6962,-0.6964,-0.6966,-0.6971,-0.6995,-0.7013,-0.6991,-0.6991,-0.6996,-0.7032,-0.7042,-0.7046,-0.7084,-0.706,-0.7062,-0.7063,-0.7064,-0.7146,-0.7147,0,0,0,0,0,0,-0.6907,-0.6915,-0.697,-0.6972,-0.6937,-0.6968,-0.6973,-0.6986,-0.7013,-0.7017,-0.6997,-0.6996,-0.7039,-0.7043,-0.7047,-0.7082,-0.7062,-0.7065,-0.7066,-0.7145,-0.7146,-0.7147,0,0,0,0,0,0,-0.6905,-0.6912,-0.6968,-0.6944,-0.6951,-0.697,-0.6984,-0.6987,-0.6997,-0.7018,-0.7021,-0.7004,-0.7038,-0.7044,-0.7071,-0.7083,-0.7066,-0.7068,-0.7144,-0.7146,-0.7147,-0.7149,0,0,0,0,0,0,-0.6903,-0.6911,-0.6921,-0.6944,-0.6952,-0.6991,-0.6985,-0.6988,-0.7001,-0.7001,-0.7025,-0.7028,-0.7038,-0.7068,-0.7074,-0.7086,-0.707,-0.7143,-0.7145,-0.7146,-0.7148,-0.715,-0.7152,0,0,0,0,0,-0.69,-0.692,-0.6921,-0.6928,-0.6965,-0.6991,-0.6996,-0.7007,-0.7002,-0.7012,-0.7026,-0.7028,-0.7081,-0.7071,-0.7077,-0.7091,-0.7143,-0.7145,-0.7146,-0.7147,-0.715,-0.7152,0,0,0,0,0,0,-0.6897,-0.6923,-0.6925,-0.6952,-0.6969,-0.6992,-0.7006,-0.7009,-0.7028,-0.7028,-0.704,-0.7046,-0.7073,-0.7084,-0.7072,-0.7119,-0.7111,-0.7115,-0.711,-0.7113,-0.7115,-0.7112,-0.7072,0,0,0,0,0,-0.69,-0.6919,-0.694,-0.6962,-0.6971,-0.6987,-0.6999,-0.7005,-0.7024,-0.7032,-0.7047,-0.7066,-0.7087,-0.71,-0.712,-0.715,-0.7156,-0.7162,-0.7164,-0.7166,-0.7169,-0.7187,-0.719,-0.7153,-0.7153,-0.7152,0,0,-0.6905,-0.6922,-0.6933,-0.6962,-0.6976,-0.6997,-0.6993,-0.7014,-0.703,-0.7035,-0.7062,-0.7074,-0.7096,-0.7124,-0.7138,-0.7135,-0.718,-0.7168,-0.7169,-0.7171,-0.7189,-0.7192,-0.7195,-0.7154,-0.7153,-0.7153,0,0,-0.6926,-0.694,-0.696,-0.6975,-0.6997,-0.7007,-0.7012,-0.7035,-0.7043,-0.707,-0.7075,-0.7094,-0.7129,-0.7145,-0.7158,-0.7185,-0.7188,-0.7192,-0.7202,-0.7219,-0.7222,-0.7225,-0.7236,-0.724,-0.7194,-0.7194,-0.7194,0,-0.6931,-0.696,-0.6971,-0.6992,-0.7005,-0.7011,-0.7033,-0.7046,-0.7074,-0.7083,-0.7079,-0.7125,-0.714,-0.7173,-0.718,-0.719,-0.7197,-0.7189,-0.7221,-0.7224,-0.7227,-0.7237,-0.7241,-0.7194,-0.7194,-0.7194,-0.7194,0,-0.6965,-0.6986,-0.7,-0.7027,-0.7042,-0.7063,-0.7077,-0.7091,-0.7097,-0.7108,-0.7137,-0.7155,-0.7179,-0.7188,-0.7193,-0.7222,-0.722,-0.7218,-0.7212,-0.723,-0.7241,-0.7245,-0.7195,-0.7195,-0.7195,-0.7195,0,0,-0.6986,-0.7018,-0.7023,-0.7036,-0.706,-0.7077,-0.7099,-0.7123,-0.7136,-0.7154,-0.7174,-0.7204,-0.7204,-0.7218,-0.7225,-0.724,-0.7263,-0.7237,-0.7238,-0.7242,-0.7298,-0.73,-0.7304,-0.7265,-0.7266,-0.7266,-0.7296,0,-0.701,-0.7049,-0.706,-0.7093,-0.7114,-0.712,-0.7139,-0.7157,-0.7168,-0.7188,-0.72,-0.7222,-0.7219,-0.7228,-0.7243,-0.7257,-0.7274,-0.7255,-0.7284,-0.7285,-0.728,-0.7309,-0.7311,-0.7339,-0.73,-0.7301,-0.7301,0,-0.7044,-0.7064,-0.7099,-0.7123,-0.7132,-0.7149,-0.7172,-0.719,-0.7211,-0.7218,-0.7235,-0.7241,-0.7266,-0.7257,-0.7291,-0.7278,-0.7291,-0.73,-0.7301,-0.7305,-0.7295,-0.7315,-0.7348,-0.7352,-0.7308,-0.7307,-0.7307,0,-0.7057,-0.7092,-0.7119,-0.7129,-0.7156,-0.7169,-0.7181,-0.7201,-0.7215,-0.7236,-0.7245,-0.7269,-0.7282,-0.73,-0.7313,-0.7305,-0.7347,-0.7339,-0.7355,-0.7354,-0.7364,-0.7363,-0.74,-0.737,-0.737,-0.737,-0.737,0,-0.7084,-0.7106,-0.7125,-0.7141,-0.7167,-0.7178,-0.7203,-0.7216,-0.7234,-0.7253,-0.726,-0.7278,-0.7293,-0.7314,-0.7324,-0.7352,-0.7357,-0.7365,-0.7368,-0.7365,-0.7364,-0.7374,-0.7373,-0.7371,-0.7371,-0.7371,-0.737,0,-0.7103,-0.7116,-0.7146,-0.7169,-0.7176,-0.7194,-0.7214,-0.7231,-0.7242,-0.7267,-0.7274,-0.7292,-0.7317,-0.7331,-0.7363,-0.737,-0.7401,-0.7402,-0.7394,-0.7395,-0.7411,-0.741,-0.7456,-0.7463,-0.7427,-0.7428,-0.7428,0,-0.712,-0.7137,-0.7163,-0.7176,-0.7188,-0.721,-0.7224,-0.7237,-0.7252,-0.7278,-0.7292,-0.7317,-0.7338,-0.7377,-0.7394,-0.7418,-0.7421,-0.7435,-0.7424,-0.7422,-0.7423,-0.7422,-0.7424,-0.7437,-0.7438,-0.7438,-0.7438,0,-0.7149,-0.7155,-0.7176,-0.7199,-0.7216,-0.7235,-0.7254,-0.7265,-0.7281,-0.7298,-0.7323,-0.7339,-0.7371,-0.7397,-0.7423,-0.7436,-0.7441,-0.7441,-0.7447,-0.7445,-0.744,-0.7444,-0.74,-0.744,-0.744,-0.744,-0.744,-0.744,-0.7169,-0.7185,-0.7206,-0.7229,-0.7244,-0.7262,-0.7279,-0.7293,-0.7314,-0.7341,-0.7347,-0.7374,-0.7396,-0.7431,-0.7445,-0.7467,-0.7465,-0.7472,-0.7474,-0.7476,-0.7477,-0.7435,-0.7472,-0.7471,-0.7471,-0.7471,-0.7471,0,-0.72,-0.7213,-0.7234,-0.7261,-0.7279,-0.7281,-0.7302,-0.7318,-0.7341,-0.7361,-0.7381,-0.7411,-0.7436,-0.7455,-0.7481,-0.7495,-0.7497,-0.7501,-0.7501,-0.7504,-0.7477,-0.747,-0.7499,-0.7499,-0.7499,-0.7499,-0.7499,-0.7499,-0.7218,-0.7246,-0.7254,-0.729,-0.7304,-0.733,-0.7342,-0.7359,-0.7375,-0.7408,-0.7428,-0.744,-0.746,-0.7487,-0.7511,-0.7515,-0.7525,-0.7529,-0.7534,-0.7509,-0.7506,-0.7503,-0.7497,-0.7531,-0.7531,-0.756,-0.756,-0.7561]}]]